Location: Waning Moon II Observatory
(30.3730°N, 89.7620°W)
Time: 18:41:06
(UTC-05:00)

Cosmos 1825 Rocket - Visible Passes

Search period start: 22 May 2015 00:00
Search period end: 01 June 2015 00:00
Orbit: 605 x 631 km, 82.5° (Epoch: 22 May)

Date Brightness Start Highest point End Pass type
(mag) Time Alt. Az. Time Alt. Az. Time Alt. Az.
22 May 3.7 21:47:18 36° SSW 21:48:58 72° W 21:53:21 10° N visible
23 May 5.4 20:26:34 10° ESE 20:28:35 14° E 20:30:53 10° ENE visible
23 May 5.1 22:03:25 17° SW 22:06:11 34° W 22:10:10 10° NNW visible
24 May 4.5 20:42:21 12° SE 20:45:36 27° E 20:49:21 10° NNE visible
24 May 6.2 22:20:32 10° WSW 22:23:31 17° WNW 22:26:22 10° NW visible
25 May 3.6 20:58:24 10° S 21:02:39 56° E 21:06:58 10° NNE visible
26 May 3.8 21:15:26 10° SSW 21:19:46 69° W 21:24:09 10° N visible
27 May 5.3 21:33:02 10° SW 21:36:59 33° W 21:40:56 10° NNW visible
28 May 6.4 21:51:24 10° WSW 21:54:20 17° WNW 21:57:06 10° NW visible
29 May 3.6 20:29:10 10° S 20:33:27 59° E 20:37:47 10° NNE visible
30 May 4.0 20:46:13 10° SSW 20:50:33 66° W 20:54:57 10° N visible
31 May 5.5 21:03:51 10° SW 21:07:47 32° W 21:11:43 10° NNW visible
